| time (UTC) | temp C | wind direction | speed KPH | gust KPH | rain 1hr cm | rain 24hr cm | rain mn cm | humidity % | barometer mb |
| 20260509213102 | 21 | 89 | 0.0 | 4.8 | 0.00 | 0.00 | 0.00 | 39 | 1010.3 |
| 20260509212558 | 21 | 89 | 1.6 | 4.8 | 0.00 | 0.00 | 0.00 | 39 | 1010.2 |
| 20260509212059 | 21 | 89 | 0.0 | 1.6 | 0.00 | 0.00 | 0.00 | 39 | 1010.2 |
| 20260509211558 | 21 | 89 | 0.0 | 3.2 | 0.00 | 0.00 | 0.00 | 40 | 1010.2 |
| 20260509211058 | 21 | 89 | 0.0 | 1.6 | 0.00 | 0.00 | 0.00 | 39 | 1010.2 |
| 20260509210557 | 21 | 89 | 0.0 | 1.6 | 0.00 | 0.00 | 0.00 | 39 | 1010.1 |
| 20260509210106 | 21 | 89 | 0.0 | 4.8 | 0.00 | 0.00 | 0.00 | 38 | 1010.3 |
| 20260509205556 | 21 | 89 | 0.0 | 4.8 | 0.00 | 0.00 | 0.00 | 38 | 1010.2 |
| 20260509205056 | 21 | 89 | 0.0 | 3.2 | 0.00 | 0.00 | 0.00 | 38 | 1010.2 |
| 20260509204556 | 21 | 89 | 0.0 | 3.2 | 0.00 | 0.00 | 0.00 | 38 | 1010.1 |
| 20260509204055 | 22 | 89 | 0.0 | 6.4 | 0.00 | 0.00 | 0.00 | 38 | 1010.1 |
| 20260509203558 | 22 | 90 | 0.0 | 9.7 | 0.00 | 0.00 | 0.00 | 36 | 1010.1 |
| 20260509203107 | 22 | 88 | 1.6 | 12.9 | 0.00 | 0.00 | 0.00 | 36 | 1010.1 |
| 20260509202554 | 22 | 90 | 1.6 | 12.9 | 0.00 | 0.00 | 0.00 | 38 | 1010.0 |
| 20260509202054 | 22 | 87 | 1.6 | 9.7 | 0.00 | 0.00 | 0.00 | 38 | 1010.1 |
| 20260509201553 | 22 | 24 | 1.6 | 9.7 | 0.00 | 0.00 | 0.00 | 37 | 1010.1 |
| 20260509201053 | 21 | 32 | 3.2 | 9.7 | 0.00 | 0.00 | 0.00 | 37 | 1010.1 |
| 20260509200551 | 21 | 62 | 0.0 | 4.8 | 0.00 | 0.00 | 0.00 | 38 | 1010.3 |
| 20260509200056 | 21 | 62 | 0.0 | 6.4 | 0.00 | 0.00 | 0.00 | 36 | 1010.3 |
| 20260509195552 | 21 | 62 | 0.0 | 6.4 | 0.00 | 0.00 | 0.00 | 39 | 1010.3 |
| 20260509195052 | 21 | 71 | 1.6 | 6.4 | 0.00 | 0.00 | 0.00 | 37 | 1010.3 |
| 20260509194551 | 22 | 64 | 1.6 | 6.4 | 0.00 | 0.00 | 0.00 | 36 | 1010.4 |
| 20260509194051 | 22 | 50 | 1.6 | 8.0 | 0.00 | 0.00 | 0.00 | 37 | 1010.4 |
| 20260509193551 | 22 | 78 | 1.6 | 8.0 | 0.00 | 0.00 | 0.00 | 37 | 1010.4 |
| 20260509193056 | 22 | 67 | 0.0 | 8.0 | 0.00 | 0.00 | 0.00 | 36 | 1010.3 |
| 20260509192550 | 22 | 62 | 3.2 | 8.0 | 0.00 | 0.00 | 0.00 | 37 | 1010.3 |
| 20260509192050 | 21 | 65 | 1.6 | 14.5 | 0.00 | 0.00 | 0.00 | 38 | 1010.3 |
| 20260509191558 | 21 | 73 | 3.2 | 14.5 | 0.00 | 0.00 | 0.00 | 38 | 1010.2 |
| 20260509191048 | 21 | 72 | 3.2 | 9.7 | 0.00 | 0.00 | 0.00 | 37 | 1010.3 |
| 20260509190545 | 21 | 83 | 1.6 | 8.0 | 0.00 | 0.00 | 0.00 | 37 | 1010.3 |
| 20260509190050 | 21 | 355 | 3.2 | 9.7 | 0.00 | 0.00 | 0.00 | 38 | 1010.5 |
| 20260509185544 | 20 | 92 | 3.2 | 9.7 | 0.00 | 0.00 | 0.00 | 38 | 1010.7 |
| 20260509185044 | 21 | 94 | 4.8 | 11.3 | 0.00 | 0.00 | 0.00 | 36 | 1010.8 |
| 20260509184555 | 21 | 77 | 1.6 | 6.4 | 0.00 | 0.00 | 0.00 | 36 | 1010.8 |
| 20260509184041 | 21 | 13 | 1.6 | 6.4 | 0.00 | 0.00 | 0.00 | 36 | 1011.0 |
| 20260509183542 | 21 | 86 | 3.2 | 8.0 | 0.00 | 0.00 | 0.00 | 35 | 1011.0 |
| 20260509183050 | 21 | 44 | 1.6 | 8.0 | 0.00 | 0.00 | 0.00 | 36 | 1010.9 |
| 20260509182539 | 20 | 94 | 1.6 | 9.7 | 0.00 | 0.00 | 0.00 | 38 | 1011.2 |
| 20260509182037 | 20 | 97 | 3.2 | 9.7 | 0.00 | 0.00 | 0.00 | 36 | 1011.0 |
| 20260509181536 | 20 | 59 | 0.0 | 14.5 | 0.00 | 0.00 | 0.00 | 38 | 1011.0 |
| 20260509181036 | 20 | 82 | 3.2 | 14.5 | 0.00 | 0.00 | 0.00 | 37 | 1011.2 |
| 20260509180534 | 20 | 53 | 1.6 | 6.4 | 0.00 | 0.00 | 0.00 | 37 | 1011.4 |
| 20260509180035 | 20 | 73 | 1.6 | 8.0 | 0.00 | 0.00 | 0.00 | 38 | 1011.3 |
| 20260509175534 | 20 | 72 | 1.6 | 8.0 | 0.00 | 0.00 | 0.00 | 38 | 1011.3 |
| 20260509175033 | 19 | 12 | 1.6 | 9.7 | 0.00 | 0.00 | 0.00 | 37 | 1011.4 |
| 20260509174532 | 19 | 337 | 1.6 | 9.7 | 0.00 | 0.00 | 0.00 | 39 | 1011.5 |
| 20260509174032 | 18 | 41 | 1.6 | 8.0 | 0.00 | 0.00 | 0.00 | 39 | 1011.7 |
| 20260509173530 | 18 | 51 | 0.0 | 6.4 | 0.00 | 0.00 | 0.00 | 41 | 1011.7 |
| 20260509173031 | 18 | 53 | 0.0 | 6.4 | 0.00 | 0.00 | 0.00 | 41 | 1011.8 |
| 20260509172530 | 18 | 54 | 0.0 | 4.8 | 0.00 | 0.00 | 0.00 | 40 | 1011.9 |
| 20260509172030 | 18 | 54 | 0.0 | 4.8 | 0.00 | 0.00 | 0.00 | 40 | 1012.0 |
| 20260509171531 | 18 | 54 | 0.0 | 4.8 | 0.00 | 0.00 | 0.00 | 39 | 1012.1 |
| 20260509171029 | 18 | 54 | 1.6 | 4.8 | 0.00 | 0.00 | 0.00 | 40 | 1012.3 |
| 20260509170529 | 19 | 54 | 0.0 | 4.8 | 0.00 | 0.00 | 0.00 | 38 | 1012.2 |
| 20260509170029 | 19 | 58 | 0.0 | 6.4 | 0.00 | 0.00 | 0.00 | 38 | 1012.3 |
| 20260509165529 | 19 | 54 | 0.0 | 4.8 | 0.00 | 0.00 | 0.00 | 38 | 1012.5 |
| 20260509165028 | 19 | 5 | 1.6 | 4.8 | 0.00 | 0.00 | 0.00 | 38 | 1012.4 |
| 20260509164528 | 18 | 338 | 0.0 | 6.4 | 0.00 | 0.00 | 0.00 | 40 | 1012.3 |
| 20260509164029 | 18 | 337 | 0.0 | 4.8 | 0.00 | 0.00 | 0.00 | 39 | 1012.3 |
| 20260509163527 | 19 | 330 | 0.0 | 12.9 | 0.00 | 0.00 | 0.00 | 39 | 1012.2 |
| 20260509163037 | 19 | 311 | 1.6 | 16.1 | 0.00 | 0.00 | 0.00 | 39 | 1012.2 |
| 20260509162527 | 19 | 117 | 3.2 | 16.1 | 0.00 | 0.00 | 0.00 | 39 | 1012.0 |
| 20260509162027 | 19 | 90 | 3.2 | 9.7 | 0.00 | 0.00 | 0.00 | 39 | 1011.9 |
| 20260509161526 | 19 | 26 | 0.0 | 12.9 | 0.00 | 0.00 | 0.00 | 38 | 1011.9 |
| 20260509161027 | 19 | 304 | 3.2 | 14.5 | 0.00 | 0.00 | 0.00 | 38 | 1011.9 |
| 20260509160525 | 19 | 11 | 3.2 | 14.5 | 0.00 | 0.00 | 0.00 | 38 | 1011.8 |
| 20260509160025 | 18 | 41 | 1.6 | 8.0 | 0.00 | 0.00 | 0.00 | 39 | 1011.8 |
| 20260509155523 | 18 | 65 | 1.6 | 8.0 | 0.00 | 0.00 | 0.00 | 40 | 1011.9 |
| 20260509155023 | 18 | 63 | 0.0 | 6.4 | 0.00 | 0.00 | 0.00 | 41 | 1011.9 |
| 20260509154525 | 18 | 84 | 0.0 | 6.4 | 0.00 | 0.00 | 0.00 | 41 | 1012.0 |
| 20260509154022 | 18 | 84 | 0.0 | 6.4 | 0.00 | 0.00 | 0.00 | 40 | 1012.1 |
| 20260509153521 | 18 | 84 | 0.0 | 6.4 | 0.00 | 0.00 | 0.00 | 39 | 1012.1 |
| 20260509153026 | 18 | 84 | 0.0 | 4.8 | 0.00 | 0.00 | 0.00 | 38 | 1012.2 |
| 20260509152521 | 18 | 84 | 0.0 | 6.4 | 0.00 | 0.00 | 0.00 | 39 | 1012.3 |
| 20260509152021 | 18 | 84 | 3.2 | 6.4 | 0.00 | 0.00 | 0.00 | 38 | 1012.2 |
| 20260509151520 | 18 | 84 | 3.2 | 11.3 | 0.00 | 0.00 | 0.00 | 36 | 1012.3 |
| 20260509151019 | 18 | 85 | 0.0 | 11.3 | 0.00 | 0.00 | 0.00 | 38 | 1012.3 |
| 20260509150523 | 19 | 76 | 1.6 | 4.8 | 0.00 | 0.00 | 0.00 | 36 | 1012.3 |
| 20260509150017 | 18 | 76 | 0.0 | 3.2 | 0.00 | 0.00 | 0.00 | 39 | 1012.3 |
| 20260509145516 | 17 | 76 | 0.0 | 4.8 | 0.00 | 0.00 | 0.00 | 38 | 1012.3 |
| 20260509145015 | 17 | 76 | 0.0 | 4.8 | 0.00 | 0.00 | 0.00 | 39 | 1012.3 |
| 20260509144513 | 17 | 76 | 0.0 | 3.2 | 0.00 | 0.00 | 0.00 | 38 | 1012.3 |
| 20260509144015 | 17 | 76 | 0.0 | 4.8 | 0.00 | 0.00 | 0.00 | 41 | 1012.5 |
| 20260509143511 | 16 | 76 | 0.0 | 4.8 | 0.00 | 0.00 | 0.00 | 42 | 1012.5 |
| 20260509143010 | 16 | 76 | 0.0 | 3.2 | 0.00 | 0.00 | 0.00 | 43 | 1012.5 |
| 20260509142513 | 16 | 76 | 0.0 | 6.4 | 0.00 | 0.00 | 0.00 | 43 | 1012.6 |
| 20260509142007 | 16 | 76 | 0.0 | 6.4 | 0.00 | 0.00 | 0.00 | 44 | 1012.7 |
| 20260509141506 | 16 | 76 | 0.0 | 4.8 | 0.00 | 0.00 | 0.00 | 44 | 1012.6 |
| 20260509141005 | 15 | 76 | 0.0 | 6.4 | 0.00 | 0.00 | 0.00 | 45 | 1012.7 |
| 20260509140503 | 15 | 76 | 1.6 | 6.4 | 0.00 | 0.00 | 0.00 | 44 | 1012.8 |
| 20260509140003 | 15 | 80 | 0.0 | 3.2 | 0.00 | 0.00 | 0.00 | 44 | 1012.7 |
| 20260509135502 | 14 | 80 | 0.0 | 3.2 | 0.00 | 0.00 | 0.00 | 45 | 1012.6 |
| 20260509135004 | 14 | 80 | 0.0 | 4.8 | 0.00 | 0.00 | 0.00 | 45 | 1012.7 |
| 20260509134501 | 13 | 80 | 0.0 | 4.8 | 0.00 | 0.00 | 0.00 | 44 | 1012.6 |
| 20260509134100 | 13 | 79 | 0.0 | 3.2 | 0.00 | 0.00 | 0.00 | 45 | 1012.4 |
| 20260509133603 | 13 | 80 | 0.0 | 3.2 | 0.00 | 0.00 | 0.00 | 46 | 1012.4 |
| 20260509133058 | 13 | 80 | 0.0 | 3.2 | 0.00 | 0.00 | 0.00 | 47 | 1012.4 |
| 20260509132558 | 13 | 80 | 0.0 | 6.4 | 0.00 | 0.00 | 0.00 | 47 | 1012.5 |
| 20260509132100 | 13 | 80 | 0.0 | 6.4 | 0.00 | 0.00 | 0.00 | 46 | 1012.4 |
| 20260509131555 | 13 | 84 | 0.0 | 4.8 | 0.00 | 0.00 | 0.00 | 46 | 1012.6 |
| 20260509131054 | 13 | 84 | 0.0 | 3.2 | 0.00 | 0.00 | 0.00 | 46 | 1012.4 |
| 20260509130556 | 13 | 84 | 0.0 | 3.2 | 0.00 | 0.00 | 0.00 | 45 | 1012.6 |
| 20260509130105 | 13 | 84 | 0.0 | 4.8 | 0.00 | 0.00 | 0.00 | 45 | 1012.8 |
| 20260509125553 | 13 | 84 | 0.0 | 6.4 | 0.00 | 0.00 | 0.00 | 46 | 1012.7 |
| 20260509125054 | 13 | 86 | 0.0 | 6.4 | 0.00 | 0.00 | 0.00 | 46 | 1012.8 |
| 20260509124556 | 13 | 87 | 0.0 | 0.0 | 0.00 | 0.00 | 0.00 | 46 | 1012.7 |
| 20260509124055 | 13 | 87 | 0.0 | 1.6 | 0.00 | 0.00 | 0.00 | 46 | 1012.7 |
| 20260509123551 | 13 | 87 | 0.0 | 1.6 | 0.00 | 0.00 | 0.00 | 46 | 1012.8 |
| 20260509123052 | 13 | 87 | 0.0 | 4.8 | 0.00 | 0.00 | 0.00 | 45 | 1012.8 |
| 20260509122550 | 13 | 87 | 0.0 | 4.8 | 0.00 | 0.00 | 0.00 | 46 | 1012.6 |
| 20260509122048 | 12 | 87 | 0.0 | 3.2 | 0.00 | 0.00 | 0.00 | 45 | 1012.7 |
| 20260509121550 | 12 | 87 | 0.0 | 1.6 | 0.00 | 0.00 | 0.00 | 46 | 1012.6 |
| 20260509121049 | 12 | 87 | 0.0 | 3.2 | 0.00 | 0.00 | 0.00 | 46 | 1012.6 |
| 20260509120546 | 12 | 87 | 0.0 | 3.2 | 0.00 | 0.00 | 0.00 | 47 | 1012.5 |
| 20260509120045 | 12 | 87 | 0.0 | 3.2 | 0.00 | 0.00 | 0.00 | 47 | 1012.5 |
| 20260509115544 | 13 | 87 | 0.0 | 0.0 | 0.00 | 0.00 | 0.00 | 46 | 1012.6 |
| 20260509115044 | 13 | 87 | 0.0 | 0.0 | 0.00 | 0.00 | 0.00 | 46 | 1012.5 |
| 20260509114552 | 13 | 87 | 0.0 | 0.0 | 0.00 | 0.00 | 0.00 | 46 | 1012.6 |
| 20260509114044 | 13 | 87 | 0.0 | 6.4 | 0.00 | 0.00 | 0.00 | 45 | 1012.6 |
| 20260509113545 | 13 | 87 | 0.0 | 6.4 | 0.00 | 0.00 | 0.00 | 44 | 1012.5 |
| 20260509113053 | 13 | 86 | 1.6 | 3.2 | 0.00 | 0.00 | 0.00 | 45 | 1012.4 |
| 20260509112542 | 13 | 86 | 0.0 | 3.2 | 0.00 | 0.00 | 0.00 | 44 | 1012.4 |
| 20260509112041 | 14 | 86 | 0.0 | 4.8 | 0.00 | 0.00 | 0.00 | 44 | 1012.4 |
| 20260509111541 | 14 | 86 | 0.0 | 3.2 | 0.00 | 0.00 | 0.00 | 43 | 1012.3 |
| 20260509111041 | 15 | 86 | 0.0 | 3.2 | 0.00 | 0.00 | 0.00 | 40 | 1012.2 |
| 20260509110541 | 15 | 86 | 0.0 | 3.2 | 0.00 | 0.00 | 0.00 | 41 | 1012.1 |
| 20260509110039 | 15 | 86 | 0.0 | 3.2 | 0.00 | 0.00 | 0.00 | 40 | 1012.1 |
| 20260509105542 | 15 | 86 | 0.0 | 3.2 | 0.00 | 0.00 | 0.00 | 39 | 1012.1 |
| 20260509105039 | 15 | 86 | 0.0 | 3.2 | 0.00 | 0.00 | 0.00 | 39 | 1012.1 |
| 20260509104538 | 15 | 86 | 0.0 | 3.2 | 0.00 | 0.00 | 0.00 | 39 | 1012.1 |
| 20260509104037 | 15 | 86 | 0.0 | 1.6 | 0.00 | 0.00 | 0.00 | 39 | 1012.1 |
| 20260509103537 | 15 | 86 | 0.0 | 4.8 | 0.00 | 0.00 | 0.00 | 38 | 1012.2 |
| 20260509103043 | 15 | 86 | 0.0 | 4.8 | 0.00 | 0.00 | 0.00 | 38 | 1012.1 |
| 20260509102536 | 15 | 86 | 0.0 | 4.8 | 0.00 | 0.00 | 0.00 | 38 | 1012.1 |
| 20260509102035 | 15 | 86 | 0.0 | 4.8 | 0.00 | 0.00 | 0.00 | 38 | 1012.2 |
| 20260509101548 | 15 | 86 | 1.6 | 4.8 | 0.00 | 0.00 | 0.00 | 38 | 1012.2 |
| 20260509101033 | 15 | 86 | 0.0 | 3.2 | 0.00 | 0.00 | 0.00 | 38 | 1012.1 |
| 20260509100534 | 15 | 86 | 0.0 | 3.2 | 0.00 | 0.00 | 0.00 | 38 | 1012.1 |
| 20260509100033 | 15 | 86 | 0.0 | 4.8 | 0.00 | 0.00 | 0.00 | 38 | 1012.2 |
| 20260509095533 | 14 | 86 | 0.0 | 4.8 | 0.00 | 0.00 | 0.00 | 38 | 1012.2 |
| 20260509095032 | 14 | 86 | 0.0 | 4.8 | 0.00 | 0.00 | 0.00 | 39 | 1012.2 |
| 20260509094536 | 13 | 86 | 0.0 | 4.8 | 0.00 | 0.00 | 0.00 | 39 | 1012.2 |
| 20260509094033 | 13 | 86 | 1.6 | 4.8 | 0.00 | 0.00 | 0.00 | 39 | 1012.1 |
| 20260509093535 | 13 | 88 | 0.0 | 3.2 | 0.00 | 0.00 | 0.00 | 40 | 1012.1 |
| 20260509093032 | 13 | 88 | 0.0 | 3.2 | 0.00 | 0.00 | 0.00 | 40 | 1012.2 |
| 20260509092532 | 13 | 88 | 0.0 | 4.8 | 0.00 | 0.00 | 0.00 | 40 | 1012.2 |
| 20260509092031 | 13 | 88 | 1.6 | 4.8 | 0.00 | 0.00 | 0.00 | 40 | 1012.3 |
| 20260509091531 | 13 | 88 | 0.0 | 4.8 | 0.00 | 0.00 | 0.00 | 41 | 1012.3 |
| 20260509091031 | 12 | 88 | 1.6 | 4.8 | 0.00 | 0.00 | 0.00 | 42 | 1012.3 |
| 20260509090534 | 12 | 88 | 0.0 | 4.8 | 0.00 | 0.00 | 0.00 | 44 | 1012.3 |
| 20260509090037 | 12 | 88 | 0.0 | 4.8 | 0.00 | 0.00 | 0.00 | 45 | 1012.3 |
| 20260509085531 | 12 | 88 | 0.0 | 3.2 | 0.00 | 0.00 | 0.00 | 45 | 1012.4 |
| 20260509085028 | 12 | 88 | 0.0 | 3.2 | 0.00 | 0.00 | 0.00 | 44 | 1012.4 |
| 20260509084527 | 12 | 88 | 0.0 | 3.2 | 0.00 | 0.00 | 0.00 | 44 | 1012.5 |
| 20260509084026 | 13 | 88 | 0.0 | 4.8 | 0.00 | 0.00 | 0.00 | 43 | 1012.5 |
| 20260509083526 | 13 | 88 | 0.0 | 4.8 | 0.00 | 0.00 | 0.00 | 42 | 1012.5 |
| 20260509083035 | 13 | 88 | 0.0 | 4.8 | 0.00 | 0.00 | 0.00 | 40 | 1012.5 |
| 20260509082525 | 14 | 88 | 0.0 | 0.0 | 0.00 | 0.00 | 0.00 | 39 | 1012.5 |
| 20260509082024 | 15 | 88 | 0.0 | 0.0 | 0.00 | 0.00 | 0.00 | 36 | 1012.5 |
| 20260509081524 | 15 | 88 | 0.0 | 8.0 | 0.00 | 0.00 | 0.00 | 34 | 1012.6 |
| 20260509081023 | 15 | 88 | 0.0 | 12.9 | 0.00 | 0.00 | 0.00 | 32 | 1012.6 |
| 20260509080523 | 15 | 80 | 0.0 | 12.9 | 0.00 | 0.00 | 0.00 | 32 | 1012.7 |
| 20260509080023 | 15 | 63 | 0.0 | 6.4 | 0.00 | 0.00 | 0.00 | 32 | 1012.6 |
| 20260509075524 | 15 | 77 | 0.0 | 6.4 | 0.00 | 0.00 | 0.00 | 31 | 1012.6 |
| 20260509075025 | 15 | 78 | 1.6 | 8.0 | 0.00 | 0.00 | 0.00 | 31 | 1012.7 |
| 20260509074521 | 15 | 325 | 1.6 | 8.0 | 0.00 | 0.00 | 0.00 | 32 | 1012.7 |
| 20260509074020 | 15 | 349 | 0.0 | 4.8 | 0.00 | 0.00 | 0.00 | 33 | 1012.8 |
| 20260509073520 | 15 | 349 | 0.0 | 4.8 | 0.00 | 0.00 | 0.00 | 33 | 1012.8 |
| 20260509073028 | 15 | 304 | 0.0 | 9.7 | 0.00 | 0.00 | 0.00 | 32 | 1012.7 |
| 20260509072521 | 15 | 306 | 0.0 | 9.7 | 0.00 | 0.00 | 0.00 | 32 | 1012.7 |
| 20260509072018 | 15 | 257 | 1.6 | 9.7 | 0.00 | 0.00 | 0.00 | 33 | 1012.8 |
| 20260509071521 | 15 | 239 | 0.0 | 6.4 | 0.00 | 0.00 | 0.00 | 33 | 1012.7 |
| 20260509071018 | 15 | 239 | 1.6 | 6.4 | 0.00 | 0.00 | 0.00 | 33 | 1012.7 |
| 20260509070519 | 15 | 217 | 0.0 | 4.8 | 0.00 | 0.00 | 0.00 | 33 | 1012.8 |
| 20260509070018 | 15 | 217 | 0.0 | 8.0 | 0.00 | 0.00 | 0.00 | 33 | 1012.9 |
| 20260509065517 | 15 | 218 | 1.6 | 8.0 | 0.00 | 0.00 | 0.00 | 33 | 1012.9 |
| 20260509065017 | 15 | 181 | 1.6 | 9.7 | 0.00 | 0.00 | 0.00 | 33 | 1013.0 |
| 20260509064517 | 15 | 128 | 0.0 | 6.4 | 0.00 | 0.00 | 0.00 | 33 | 1013.0 |
| 20260509064017 | 15 | 216 | 0.0 | 4.8 | 0.00 | 0.00 | 0.00 | 34 | 1013.0 |
| 20260509063516 | 15 | 216 | 0.0 | 4.8 | 0.00 | 0.00 | 0.00 | 34 | 1013.0 |
| 20260509063021 | 15 | 199 | 0.0 | 4.8 | 0.00 | 0.00 | 0.00 | 34 | 1013.2 |
| 20260509062515 | 15 | 200 | 0.0 | 4.8 | 0.00 | 0.00 | 0.00 | 34 | 1013.1 |
| 20260509062014 | 15 | 200 | 1.6 | 4.8 | 0.00 | 0.00 | 0.00 | 34 | 1013.2 |
| 20260509061517 | 15 | 200 | 1.6 | 4.8 | 0.00 | 0.00 | 0.00 | 34 | 1013.2 |
| 20260509061017 | 14 | 199 | 0.0 | 6.4 | 0.00 | 0.00 | 0.00 | 36 | 1013.2 |
| 20260509060512 | 14 | 211 | 0.0 | 6.4 | 0.00 | 0.00 | 0.00 | 36 | 1013.2 |
| 20260509060012 | 14 | 319 | 1.6 | 4.8 | 0.00 | 0.00 | 0.00 | 36 | 1013.3 |
| 20260509055514 | 13 | 320 | 0.0 | 3.2 | 0.00 | 0.00 | 0.00 | 37 | 1013.2 |
| 20260509055012 | 13 | 320 | 0.0 | 4.8 | 0.00 | 0.00 | 0.00 | 38 | 1013.3 |
| 20260509054513 | 13 | 319 | 1.6 | 4.8 | 0.00 | 0.00 | 0.00 | 39 | 1013.3 |
| 20260509054010 | 13 | 319 | 0.0 | 3.2 | 0.00 | 0.00 | 0.00 | 40 | 1013.4 |
| 20260509053511 | 13 | 319 | 0.0 | 3.2 | 0.00 | 0.00 | 0.00 | 41 | 1013.5 |
| 20260509053011 | 13 | 319 | 0.0 | 4.8 | 0.00 | 0.00 | 0.00 | 41 | 1013.5 |
| 20260509052511 | 13 | 319 | 0.0 | 4.8 | 0.00 | 0.00 | 0.00 | 41 | 1013.5 |
| 20260509052009 | 13 | 319 | 0.0 | 1.6 | 0.00 | 0.00 | 0.00 | 42 | 1013.5 |
| 20260509051509 | 13 | 319 | 0.0 | 14.5 | 0.00 | 0.00 | 0.00 | 41 | 1013.5 |
| 20260509051009 | 13 | 319 | 1.6 | 14.5 | 0.00 | 0.00 | 0.00 | 42 | 1013.5 |
| 20260509050511 | 13 | 38 | 0.0 | 0.0 | 0.00 | 0.00 | 0.00 | 41 | 1013.4 |
| 20260509050009 | 13 | 38 | 0.0 | 0.0 | 0.00 | 0.00 | 0.00 | 41 | 1013.5 |
| 20260509045508 | 13 | 38 | 0.0 | 0.0 | 0.00 | 0.00 | 0.00 | 39 | 1013.5 |
| 20260509045006 | 13 | 38 | 0.0 | 0.0 | 0.00 | 0.00 | 0.00 | 38 | 1013.5 |
| 20260509044504 | 14 | 38 | 0.0 | 0.0 | 0.00 | 0.00 | 0.00 | 38 | 1013.4 |
| 20260509044004 | 14 | 38 | 0.0 | 0.0 | 0.00 | 0.00 | 0.00 | 38 | 1013.5 |
| 20260509043503 | 14 | 38 | 0.0 | 0.0 | 0.00 | 0.00 | 0.00 | 37 | 1013.5 |
| 20260509043003 | 14 | 38 | 0.0 | 0.0 | 0.00 | 0.00 | 0.00 | 37 | 1013.5 |
| 20260509042503 | 14 | 38 | 0.0 | 0.0 | 0.00 | 0.00 | 0.00 | 37 | 1013.5 |
| 20260509042003 | 14 | 38 | 0.0 | 3.2 | 0.00 | 0.00 | 0.00 | 38 | 1013.5 |
| 20260509041502 | 14 | 38 | 0.0 | 3.2 | 0.00 | 0.00 | 0.00 | 37 | 1013.6 |
| 20260509041003 | 14 | 37 | 0.0 | 4.8 | 0.00 | 0.00 | 0.00 | 37 | 1013.6 |
| 20260509040603 | 14 | 37 | 0.0 | 4.8 | 0.00 | 0.00 | 0.00 | 36 | 1013.7 |
| 20260509040104 | 15 | 44 | 0.0 | 3.2 | 0.00 | 0.00 | 0.00 | 36 | 1013.6 |
| 20260509035559 | 15 | 44 | 0.0 | 6.4 | 0.00 | 0.00 | 0.00 | 35 | 1013.6 |
| 20260509035058 | 15 | 43 | 0.0 | 9.7 | 0.00 | 0.00 | 0.00 | 35 | 1013.7 |
| 20260509034559 | 15 | 101 | 1.6 | 9.7 | 0.00 | 0.00 | 0.00 | 34 | 1013.7 |
| 20260509034059 | 15 | 78 | 1.6 | 8.0 | 0.00 | 0.00 | 0.00 | 35 | 1013.7 |
| 20260509034001 | 15 | 78 | 1.6 | 8.0 | 0.00 | 0.00 | 0.00 | 35 | 1013.7 |
| 20260509033603 | 15 | 78 | 3.2 | 8.0 | 0.00 | 0.00 | 0.00 | 34 | 1013.7 |
| 20260509033059 | 15 | 38 | 1.6 | 8.0 | 0.00 | 0.00 | 0.00 | 34 | 1013.7 |
| 20260509032559 | 15 | 86 | 1.6 | 9.7 | 0.00 | 0.00 | 0.00 | 34 | 1013.7 |
| 20260509032058 | 15 | 84 | 1.6 | 9.7 | 0.00 | 0.00 | 0.00 | 34 | 1013.7 |
| 20260509031602 | 15 | 61 | 1.6 | 8.0 | 0.00 | 0.00 | 0.00 | 33 | 1013.8 |
| 20260509031058 | 16 | 76 | 3.2 | 8.0 | 0.00 | 0.00 | 0.00 | 33 | 1013.7 |
| 20260509030558 | 16 | 90 | 1.6 | 9.7 | 0.00 | 0.00 | 0.00 | 33 | 1013.8 |
| 20260509030113 | 16 | 100 | 3.2 | 9.7 | 0.00 | 0.00 | 0.00 | 32 | 1013.9 |
| 20260509025557 | 16 | 58 | 1.6 | 11.3 | 0.00 | 0.00 | 0.00 | 32 | 1013.9 |
| 20260509025101 | 16 | 72 | 1.6 | 9.7 | 0.00 | 0.00 | 0.00 | 33 | 1014.0 |
| 20260509024601 | 16 | 46 | 1.6 | 9.7 | 0.00 | 0.00 | 0.00 | 32 | 1014.1 |
| 20260509024057 | 16 | 88 | 3.2 | 9.7 | 0.00 | 0.00 | 0.00 | 32 | 1014.1 |
| 20260509023559 | 16 | 70 | 3.2 | 8.0 | 0.00 | 0.00 | 0.00 | 32 | 1014.1 |
| 20260509023059 | 16 | 84 | 1.6 | 11.3 | 0.00 | 0.00 | 0.00 | 32 | 1014.2 |
| 20260509022557 | 16 | 97 | 3.2 | 11.3 | 0.00 | 0.00 | 0.00 | 32 | 1014.2 |
| 20260509022101 | 16 | 92 | 3.2 | 11.3 | 0.00 | 0.00 | 0.00 | 31 | 1014.0 |
| 20260509021557 | 16 | 41 | 3.2 | 9.7 | 0.00 | 0.00 | 0.00 | 32 | 1014.1 |
| 20260509021101 | 16 | 77 | 1.6 | 9.7 | 0.00 | 0.00 | 0.00 | 32 | 1014.1 |
| 20260509020556 | 16 | 110 | 3.2 | 14.5 | 0.00 | 0.00 | 0.00 | 31 | 1014.0 |
| 20260509020106 | 16 | 66 | 4.8 | 14.5 | 0.00 | 0.00 | 0.00 | 32 | 1014.0 |
| 20260509015556 | 16 | 112 | 3.2 | 12.9 | 0.00 | 0.00 | 0.00 | 32 | 1014.0 |
| 20260509015056 | 16 | 100 | 4.8 | 14.5 | 0.00 | 0.00 | 0.00 | 33 | 1014.0 |
| 20260509014557 | 16 | 116 | 4.8 | 14.5 | 0.00 | 0.00 | 0.00 | 33 | 1014.0 |
| 20260509014055 | 16 | 97 | 1.6 | 14.5 | 0.00 | 0.00 | 0.00 | 33 | 1014.0 |
| 20260509013555 | 16 | 57 | 3.2 | 14.5 | 0.00 | 0.00 | 0.00 | 33 | 1014.1 |
| 20260509013100 | 16 | 94 | 3.2 | 14.5 | 0.00 | 0.00 | 0.00 | 33 | 1013.9 |
| 20260509012555 | 16 | 88 | 4.8 | 14.5 | 0.00 | 0.00 | 0.00 | 33 | 1013.9 |
| 20260509012055 | 16 | 59 | 3.2 | 8.0 | 0.00 | 0.00 | 0.00 | 34 | 1013.9 |
| 20260509011558 | 16 | 81 | 1.6 | 11.3 | 0.00 | 0.00 | 0.00 | 34 | 1013.9 |
| 20260509011055 | 15 | 103 | 3.2 | 11.3 | 0.00 | 0.00 | 0.00 | 34 | 1013.8 |
| 20260509010554 | 15 | 142 | 1.6 | 8.0 | 0.00 | 0.00 | 0.00 | 34 | 1013.9 |
| 20260509010054 | 15 | 146 | 3.2 | 8.0 | 0.00 | 0.00 | 0.00 | 34 | 1013.8 |
| 20260509005554 | 15 | 249 | 1.6 | 8.0 | 0.00 | 0.00 | 0.00 | 34 | 1013.8 |
| 20260509005054 | 15 | 234 | 0.0 | 6.4 | 0.00 | 0.00 | 0.00 | 34 | 1013.9 |
| 20260509004559 | 15 | 234 | 1.6 | 6.4 | 0.00 | 0.00 | 0.00 | 33 | 1013.8 |
| 20260509004054 | 16 | 225 | 0.0 | 1.6 | 0.00 | 0.00 | 0.00 | 32 | 1013.7 |
| 20260509003554 | 16 | 225 | 0.0 | 3.2 | 0.00 | 0.00 | 0.00 | 32 | 1013.7 |
| 20260509003057 | 16 | 225 | 0.0 | 4.8 | 0.00 | 0.00 | 0.00 | 31 | 1013.6 |
| 20260509002553 | 16 | 225 | 0.0 | 6.4 | 0.00 | 0.00 | 0.00 | 32 | 1013.7 |
| 20260509002053 | 16 | 225 | 1.6 | 6.4 | 0.00 | 0.00 | 0.00 | 29 | 1013.6 |
| 20260509001553 | 16 | 189 | 0.0 | 1.6 | 0.00 | 0.00 | 0.00 | 30 | 1013.6 |
| 20260509001053 | 17 | 189 | 0.0 | 1.6 | 0.00 | 0.00 | 0.00 | 28 | 1013.6 |
| 20260509000552 | 17 | 189 | 0.0 | 0.0 | 0.00 | 0.00 | 0.00 | 28 | 1013.6 |
| 20260509000055 | 17 | 189 | 0.0 | 0.0 | 0.00 | 0.00 | 0.00 | 28 | 1013.6 |
| 20260508235553 | 17 | 189 | 0.0 | 0.0 | 0.00 | 0.00 | 0.00 | 28 | 1013.4 |
| 20260508235052 | 17 | 189 | 0.0 | 0.0 | 0.00 | 0.00 | 0.00 | 27 | 1013.4 |
| 20260508234553 | 17 | 189 | 0.0 | 0.0 | 0.00 | 0.00 | 0.00 | 27 | 1013.3 |
| 20260508234056 | 17 | 189 | 0.0 | 0.0 | 0.00 | 0.00 | 0.00 | 28 | 1013.4 |
| 20260508233552 | 17 | 189 | 0.0 | 0.0 | 0.00 | 0.00 | 0.00 | 27 | 1013.4 |
| 20260508233052 | 18 | 189 | 0.0 | 0.0 | 0.00 | 0.00 | 0.00 | 27 | 1013.3 |
| 20260508232554 | 18 | 189 | 0.0 | 1.6 | 0.00 | 0.00 | 0.00 | 29 | 1013.4 |
| 20260508232051 | 18 | 189 | 0.0 | 1.6 | 0.00 | 0.00 | 0.00 | 28 | 1013.3 |
| 20260508231551 | 18 | 189 | 0.0 | 0.0 | 0.00 | 0.00 | 0.00 | 27 | 1013.4 |
| 20260508231051 | 18 | 189 | 0.0 | 1.6 | 0.00 | 0.00 | 0.00 | 26 | 1013.3 |
| 20260508230554 | 19 | 189 | 0.0 | 1.6 | 0.00 | 0.00 | 0.00 | 27 | 1013.3 |
| 20260508230051 | 19 | 189 | 0.0 | 1.6 | 0.00 | 0.00 | 0.00 | 27 | 1013.3 |
| 20260508225550 | 19 | 189 | 0.0 | 0.0 | 0.00 | 0.00 | 0.00 | 28 | 1013.3 |
| 20260508225053 | 19 | 189 | 0.0 | 0.0 | 0.00 | 0.00 | 0.00 | 28 | 1013.3 |
| 20260508224622 | 19 | 189 | 0.0 | 3.2 | 0.00 | 0.00 | 0.00 | 27 | 1013.3 |
| 20260508224048 | 20 | 189 | 0.0 | 3.2 | 0.00 | 0.00 | 0.00 | 24 | 1013.2 |
| 20260508223548 | 20 | 189 | 0.0 | 1.6 | 0.00 | 0.00 | 0.00 | 22 | 1013.3 |
| 20260508223053 | 20 | 189 | 0.0 | 3.2 | 0.00 | 0.00 | 0.00 | 23 | 1013.1 |
| 20260508222551 | 20 | 189 | 0.0 | 6.4 | 0.00 | 0.00 | 0.00 | 22 | 1013.1 |
| 20260508222047 | 20 | 189 | 0.0 | 6.4 | 0.00 | 0.00 | 0.00 | 22 | 1013.1 |
| 20260508221547 | 21 | 182 | 0.0 | 6.4 | 0.00 | 0.00 | 0.00 | 19 | 1013.0 |
| 20260508221046 | 21 | 182 | 0.0 | 6.4 | 0.00 | 0.00 | 0.00 | 20 | 1013.0 |
| 20260508220545 | 21 | 182 | 0.0 | 3.2 | 0.00 | 0.00 | 0.00 | 20 | 1013.0 |
| 20260508220051 | 20 | 182 | 0.0 | 6.4 | 0.00 | 0.00 | 0.00 | 20 | 1013.0 |
| 20260508215544 | 20 | 182 | 0.0 | 6.4 | 0.00 | 0.00 | 0.00 | 22 | 1013.2 |
| 20260508215044 | 20 | 182 | 0.0 | 4.8 | 0.00 | 0.00 | 0.00 | 22 | 1013.2 |
| 20260508214544 | 20 | 182 | 0.0 | 4.8 | 0.00 | 0.00 | 0.00 | 21 | 1013.3 |
| 20260508214045 | 20 | 182 | 0.0 | 4.8 | 0.00 | 0.00 | 0.00 | 22 | 1013.3 |
| 20260508213543 | 20 | 182 | 0.0 | 8.0 | 0.00 | 0.00 | 0.00 | 23 | 1013.3 |